San Antonio Stinson, TX

9:19 AM CDT on July 28, 2017 (GMT -0500)
Stinson Municipal

Weather History for KSSF - October, 2014

Change the Weather History Date:

Thursday, October 16, 2014

  Actual Average Record
Temperature  
Mean Temperature 70 °F -  
Max Temperature 89 °F 78 °F 93 °F (2015)
Min Temperature 51 °F 58 °F 45 °F (2001)
Cooling Degree Days 5    
Growing Degree Days 20 (Base 50)    
Moisture  
Dew Point 46 °F    
Average Humidity 46    
Maximum Humidity 80    
Minimum Humidity 19    
Precipitation  
Precipitation 0.00 in - - ()
Sea Level Pressure  
Sea Level Pressure 29.94 in    
Wind  
Wind Speed 5 mph (South)    
Max Wind Speed 14 mph    
Max Gust Speed 22 mph    
Visibility 10 miles    
Events      
Averages and records for this station are not official NWS values.
T = Trace of Precipitation, MM = Missing Value Source: NWS Daily Summary

Daily Weather History Graph

Daily Weather History Graph

Search for Another Location

Airport or City:

Trip Planner

Search our weather history database for the weather conditions in past years. The results will help you decide how hot, cold, wet, or windy it might be!

Date:

Astronomy

Oct. 16, 2014 Rise Set
Actual Time 7:35 AM CDT 7:02 PM CDT
Civil Twilight 7:11 AM CDT 7:26 PM CDT
Nautical Twilight 6:44 AM CDT 7:54 PM CDT
Astronomical Twilight 6:16 AM CDT 8:21 PM CDT
Moon 1:15 AM CDT (10/16) 2:48 PM CDT (10/16)
Length of Visible Light 12h 14m
Length of Day
11h 26m
Last Quarter, 41% of the Moon is Illuminated
Oct 16
Last Quarter
Oct 23
New
Oct 30
First Quarter
Nov 6
Full
Nov 14
Last Quarter

Hourly Weather History & Observations

Time (CDT) Temp. Dew Point Humidity Pressure Visibility Wind Dir Wind Speed Gust Speed Precip Events Conditions
12:53 AM 64.9 °F 42.1 °F 43% 29.98 in 10.0 mi SSW 5.8 mph - N/A   Clear
1:53 AM 60.1 °F 45.0 °F 57% 29.98 in 10.0 mi Calm Calm - N/A   Clear
2:53 AM 57.0 °F 44.1 °F 62% 29.98 in 10.0 mi Calm Calm - N/A   Clear
3:53 AM 55.0 °F 45.0 °F 69% 29.97 in 10.0 mi North 3.5 mph - N/A   Clear
4:53 AM 54.0 °F 45.0 °F 72% 29.97 in 10.0 mi Calm Calm - N/A   Clear
5:53 AM 53.1 °F 45.0 °F 74% 29.97 in 10.0 mi Calm Calm - N/A   Clear
6:53 AM 51.1 °F 45.0 °F 80% 29.99 in 10.0 mi Calm Calm - N/A   Clear
7:53 AM 54.0 °F 46.0 °F 75% 29.99 in 10.0 mi Calm Calm - N/A   Clear
8:53 AM 63.0 °F 48.9 °F 60% 30.01 in 10.0 mi Calm Calm - N/A   Clear
9:53 AM 71.1 °F 50.0 °F 47% 30.00 in 10.0 mi SSW 9.2 mph - N/A   Clear
10:53 AM 75.0 °F 50.0 °F 41% 30.00 in 10.0 mi SW 9.2 mph - N/A   Clear
11:53 AM 80.1 °F 48.9 °F 34% 29.99 in 10.0 mi SSW 9.2 mph - N/A   Clear
12:53 PM 84.0 °F 46.0 °F 26% 29.96 in 10.0 mi SSW 9.2 mph - N/A   Clear
1:53 PM 87.1 °F 44.1 °F 22% 29.93 in 10.0 mi South 9.2 mph 21.9 mph N/A   Clear
2:53 PM 88.0 °F 42.1 °F 20% 29.89 in 10.0 mi South 13.8 mph 19.6 mph N/A   Clear
3:53 PM 88.0 °F 41.0 °F 19% 29.87 in 10.0 mi SSW 10.4 mph - N/A   Clear
4:53 PM 89.1 °F 43.0 °F 20% 29.86 in 10.0 mi South 12.7 mph - N/A   Clear
5:53 PM 87.1 °F 43.0 °F 21% 29.86 in 10.0 mi SSE 12.7 mph 17.3 mph N/A   Clear
6:53 PM 81.0 °F 43.0 °F 26% 29.86 in 10.0 mi SSE 5.8 mph - N/A   Clear
7:53 PM 75.0 °F 45.0 °F 34% 29.88 in 10.0 mi SE 5.8 mph - N/A   Clear
8:53 PM 72.0 °F 45.0 °F 38% 29.89 in 10.0 mi SE 3.5 mph - N/A   Clear
9:53 PM 69.1 °F 46.9 °F 45% 29.89 in 10.0 mi SSE 6.9 mph - N/A   Clear
10:53 PM 68.0 °F 51.1 °F 55% 29.89 in 10.0 mi SSE 5.8 mph - N/A   Clear
11:53 PM 66.0 °F 55.0 °F 68% 29.89 in 10.0 mi SSE 3.5 mph - N/A   Clear